When you browse on this site, cookies collect data to enhance your experience and personalize the content and advertising you see.
Visit our Privacy Policy to learn more. By continuing to use the site, you agree to this use of cookies and data.
  • In Slovakia
  • List of Countries
  • For 7 days
  • Water Temperature
  • Satellite Maps
  • Weather Map
  • Weather Widgets
  • user-avatar
    Login

    Hourly Weather Urkarah

    Today, 16 June, Sunday

    Time Temperature Precipitation Wind Pressure Humidity
    00:00 +14°C° 0 mm 2 mps 650 mmHg 70%
    01:00 +14°C° 0 mm 1 mps 650 mmHg 70%
    02:00 +14°C° 0 mm 1 mps 650 mmHg 69%
    03:00 +14°C° 0 mm 1 mps 650 mmHg 67%
    04:00 +15°C° 0 mm 1 mps 650 mmHg 66%
    05:00 +16°C° 0 mm 1 mps 650 mmHg 66%
    06:00 +18°C° 0 mm 1 mps 650 mmHg 65%
    07:00 +20°C° 0 mm 1 mps 651 mmHg 62%
    08:00 +21°C° 0 mm 1 mps 651 mmHg 58%
    09:00 +23°C° 0 mm 2 mps 652 mmHg 55%
    10:00 +23°C° 0.4 mm 2 mps 651 mmHg 55%
    11:00 +24°C° 0.4 mm 2 mps 651 mmHg 55%
    12:00 +24°C° 0.4 mm 2 mps 651 mmHg 54%
    13:00 +23°C° 0.6 mm 2 mps 651 mmHg 57%
    14:00 +23°C° 0.6 mm 2 mps 650 mmHg 59%
    15:00 +23°C° 0 mm 2 mps 650 mmHg 59%
    16:00 +21°C° 0.7 mm 2 mps 650 mmHg 65%
    17:00 +19°C° 0.7 mm 2 mps 650 mmHg 70%
    18:00 +18°C° 0.7 mm 2 mps 649 mmHg 76%
    19:00 +18°C° 0 mm 2 mps 649 mmHg 74%
    20:00 +17°C° 0 mm 2 mps 649 mmHg 72%
    21:00 +16°C° 0 mm 2 mps 649 mmHg 70%
    22:00 +16°C° 0 mm 2 mps 649 mmHg 68%
    23:00 +16°C° 0 mm 2 mps 649 mmHg 66%

    Tomorrow, 17 June, Monday

    Time Temperature Precipitation Wind Pressure Humidity
    00:00 +16°C° 0 mm 2 mps 648 mmHg 65%
    01:00 +15°C° 0 mm 2 mps 648 mmHg 64%
    02:00 +15°C° 0 mm 2 mps 648 mmHg 63%
    03:00 +15°C° 0 mm 2 mps 648 mmHg 63%
    04:00 +16°C° 0 mm 2 mps 648 mmHg 63%
    05:00 +17°C° 0 mm 2 mps 649 mmHg 64%
    06:00 +19°C° 0 mm 1 mps 649 mmHg 65%
    07:00 +20°C° 0.1 mm 2 mps 650 mmHg 62%
    08:00 +21°C° 0.1 mm 2 mps 650 mmHg 59%
    09:00 +23°C° 0.1 mm 2 mps 651 mmHg 56%
    10:00 +23°C° 0.6 mm 2 mps 651 mmHg 57%
    11:00 +24°C° 0.6 mm 2 mps 651 mmHg 57%
    12:00 +24°C° 0.6 mm 2 mps 651 mmHg 58%
    13:00 +24°C° 1.6 mm 2 mps 650 mmHg 60%
    14:00 +23°C° 1.6 mm 2 mps 650 mmHg 62%
    15:00 +23°C° 1.6 mm 2 mps 650 mmHg 64%
    16:00 +22°C° 0.8 mm 1 mps 650 mmHg 66%
    17:00 +22°C° 0.8 mm 1 mps 650 mmHg 69%
    18:00 +19°C° 0.8 mm 0 mps 649 mmHg 71%
    19:00 +20°C° 0 mm 1 mps 649 mmHg 71%
    20:00 +19°C° 0 mm 1 mps 650 mmHg 70%
    21:00 +18°C° 0 mm 1 mps 650 mmHg 70%
    22:00 +18°C° 0.2 mm 1 mps 650 mmHg 70%
    23:00 +16°C° 0.2 mm 1 mps 650 mmHg 71%

    Day after tomorrow, 18 June, Tuesday

    Time Temperature Precipitation Wind Pressure Humidity
    00:00 +16°C° 0.2 mm 2 mps 650 mmHg 71%
    01:00 +16°C° 0.5 mm 2 mps 650 mmHg 74%
    02:00 +16°C° 0.5 mm 2 mps 650 mmHg 77%
    03:00 +16°C° 0.5 mm 1 mps 650 mmHg 80%
    04:00 +16°C° 0 mm 1 mps 650 mmHg 78%
    05:00 +18°C° 0 mm 1 mps 650 mmHg 77%
    06:00 +18°C° 0 mm 1 mps 650 mmHg 75%
    07:00 +19°C° 0.1 mm 1 mps 651 mmHg 69%
    08:00 +20°C° 0.1 mm 1 mps 651 mmHg 63%
    09:00 +21°C° 0.1 mm 2 mps 652 mmHg 57%
    10:00 +21°C° 0.3 mm 2 mps 652 mmHg 55%
    11:00 +21°C° 0.3 mm 3 mps 652 mmHg 54%
    12:00 +22°C° 0.3 mm 3 mps 652 mmHg 53%
    13:00 +21°C° 0.2 mm 3 mps 651 mmHg 55%
    14:00 +21°C° 0.2 mm 3 mps 651 mmHg 57%
    15:00 +21°C° 0.2 mm 3 mps 651 mmHg 59%
    16:00 +20°C° 0.3 mm 2 mps 650 mmHg 64%
    17:00 +19°C° 0.3 mm 2 mps 650 mmHg 69%
    18:00 +19°C° 0.3 mm 1 mps 650 mmHg 74%
    19:00 +18°C° 0 mm 1 mps 650 mmHg 74%
    20:00 +16°C° 0 mm 1 mps 650 mmHg 74%
    21:00 +15°C° 0 mm 1 mps 649 mmHg 74%
    22:00 +15°C° 0 mm 1 mps 649 mmHg 74%
    23:00 +15°C° 0 mm 1 mps 649 mmHg 74%

    19 June, Wednesday

    Time Temperature Precipitation Wind Pressure Humidity
    00:00 +14°C° 0 mm 1 mps 649 mmHg 74%
    01:00 +14°C° 0 mm 1 mps 649 mmHg 73%
    02:00 +15°C° 0 mm 1 mps 649 mmHg 71%
    03:00 +15°C° 0 mm 1 mps 649 mmHg 70%
    04:00 +16°C° 0 mm 1 mps 649 mmHg 69%
    05:00 +18°C° 0 mm 1 mps 650 mmHg 68%
    06:00 +19°C° 0 mm 1 mps 650 mmHg 67%
    07:00 +20°C° 0.1 mm 1 mps 650 mmHg 64%
    08:00 +20°C° 0.1 mm 1 mps 651 mmHg 60%
    09:00 +20°C° 0.1 mm 2 mps 651 mmHg 57%
    10:00 +21°C° 0.2 mm 2 mps 651 mmHg 56%
    11:00 +21°C° 0.2 mm 2 mps 651 mmHg 55%
    12:00 +23°C° 0.2 mm 2 mps 651 mmHg 54%
    13:00 +21°C° 0.1 mm 2 mps 651 mmHg 57%
    14:00 +21°C° 0.1 mm 2 mps 651 mmHg 60%
    15:00 +20°C° 0.1 mm 2 mps 650 mmHg 62%
    16:00 +21°C° 0.1 mm 1 mps 650 mmHg 64%
    17:00 +21°C° 0.1 mm 1 mps 650 mmHg 66%
    18:00 +20°C° 0.1 mm 1 mps 650 mmHg 69%
    19:00 +19°C° 0.2 mm 1 mps 650 mmHg 71%
    20:00 +18°C° 0.2 mm 1 mps 649 mmHg 73%
    21:00 +16°C° 0.2 mm 1 mps 649 mmHg 75%
    22:00 +16°C° 0 mm 1 mps 649 mmHg 75%
    23:00 +16°C° 0 mm 1 mps 649 mmHg 75%

    20 June, Thursday

    Time Temperature Precipitation Wind Pressure Humidity
    00:00 +15°C° 0 mm 1 mps 649 mmHg 75%
    01:00 +15°C° 0 mm 1 mps 649 mmHg 75%
    02:00 +15°C° 0 mm 2 mps 649 mmHg 74%
    03:00 +15°C° 0 mm 2 mps 648 mmHg 74%
    04:00 +16°C° 0 mm 2 mps 649 mmHg 73%
    05:00 +18°C° 0 mm 1 mps 649 mmHg 71%
    06:00 +19°C° 0 mm 1 mps 650 mmHg 70%
    07:00 +20°C° 0.1 mm 2 mps 650 mmHg 64%
    08:00 +21°C° 0.1 mm 2 mps 651 mmHg 59%
    09:00 +24°C° 0.1 mm 2 mps 651 mmHg 53%
    10:00 +24°C° 0.3 mm 3 mps 651 mmHg 51%
    11:00 +23°C° 0.3 mm 4 mps 651 mmHg 49%
    12:00 +25°C° 0.3 mm 4 mps 651 mmHg 48%
    13:00 +24°C° 0.2 mm 3 mps 651 mmHg 50%
    14:00 +22°C° 0.2 mm 3 mps 650 mmHg 53%
    15:00 +21°C° 0.2 mm 2 mps 650 mmHg 56%
    16:00 +21°C° 0.1 mm 2 mps 649 mmHg 60%
    17:00 +21°C° 0.1 mm 1 mps 649 mmHg 64%
    18:00 +20°C° 0.1 mm 1 mps 649 mmHg 68%
    19:00 +19°C° 0 mm 1 mps 649 mmHg 69%
    20:00 +18°C° 0 mm 1 mps 649 mmHg 71%
    21:00 +15°C° 0 mm 1 mps 649 mmHg 72%
    22:00 +15°C° 0 mm 1 mps 649 mmHg 71%
    23:00 +15°C° 0 mm 1 mps 649 mmHg 70%

    21 June, Friday

    Time Temperature Precipitation Wind Pressure Humidity
    00:00 +15°C° 0 mm 1 mps 649 mmHg 68%
    01:00 +15°C° 0.1 mm 1 mps 649 mmHg 67%
    02:00 +15°C° 0.1 mm 1 mps 649 mmHg 66%
    03:00 +15°C° 0.1 mm 1 mps 649 mmHg 65%
    04:00 +15°C° 0 mm 1 mps 649 mmHg 65%
    05:00 +16°C° 0 mm 1 mps 650 mmHg 66%
    06:00 +18°C° 0 mm 1 mps 650 mmHg 66%
    07:00 +19°C° 0 mm 1 mps 650 mmHg 62%
    08:00 +19°C° 0 mm 2 mps 651 mmHg 57%
    09:00 +20°C° 0 mm 2 mps 651 mmHg 53%
    10:00 +21°C° 0 mm 3 mps 652 mmHg 53%
    11:00 +21°C° 0 mm 4 mps 652 mmHg 53%
    12:00 +21°C° 0 mm 5 mps 652 mmHg 53%
    13:00 +21°C° 0 mm 4 mps 652 mmHg 55%
    14:00 +20°C° 0 mm 4 mps 652 mmHg 58%
    15:00 +20°C° 0 mm 3 mps 652 mmHg 60%
    16:00 +19°C° 0 mm 3 mps 651 mmHg 62%
    17:00 +19°C° 0 mm 2 mps 651 mmHg 65%
    18:00 +18°C° 0 mm 2 mps 651 mmHg 67%
    19:00 +18°C° 0 mm 1 mps 651 mmHg 71%
    20:00 +15°C° 0 mm 1 mps 651 mmHg 75%
    21:00 +14°C° 0 mm 1 mps 650 mmHg 79%
    22:00 +14°C° 0 mm 1 mps 650 mmHg 78%
    23:00 +13°C° 0 mm 1 mps 650 mmHg 77%
    Show more